Tracking 27112 objects as of 26-Mar-2023
HD Live streaming from Space Station
objects crossing your sky now

LEMUR 2 JOHN-TREIRES

Track LEMUR 2 JOHN-TREIRES now!
10-day predictions
LEMUR 2 JOHN-TREIRES is classified as:


NORAD ID: 48925
Int'l Code: 2021-059AY
Perigee: 462.2 km
Apogee: 478.5 km
Inclination: 97.6 °
Period: 93.9 minutes
Semi major axis: 6841 km
RCS: Unknown
Launch date: June 30, 2021
Source: United States (US)
Launch site: AIR FORCE EASTERN TEST RANGE (AFETR)
Your satellite tracking list
Your tracking list is empty




NASA's NSSDC Master Catalog

Two Line Element Set (TLE):
1 48925U 21059AY  23085.13655588  .00068456  00000-0  20489-2 0  9998
2 48925  97.5843 223.0375 0011912 190.7045 169.3946 15.34215895 96880
Source of the keplerian elements: AFSPC